Date,TemperatureHighF,TemperatureAvgF,TemperatureLowF,DewpointHighF,DewpointAvgF,DewpointLowF,HumidityHigh,HumidityAvg,HumidityLow,PressureMaxIn,PressureMinIn,WindSpeedMaxMPH,WindSpeedAvgMPH,GustSpeedMaxMPH,PrecipitationSumIn
2013-2-1,37,29,22,20,12,5,63,48,33,29.91,29.42,8,2,11,0.02
2013-2-2,36,25,18,14,9,4,60,50,35,30.08,29.87,5,1,11,0.00
2013-2-3,30,26,22,24,21,14,92,82,59,29.88,29.55,5,0,7,0.00
2013-2-4,32,24,18,21,14,9,88,65,43,29.78,29.55,9,1,13,0.00
2013-2-5,28,25,19,22,16,11,85,68,58,29.85,29.75,2,0,5,0.00
2013-2-6,44,31,25,30,20,7,91,68,42,30.12,29.75,7,1,11,0.05
2013-2-7,40,26,18,15,8,4,63,46,26,30.35,30.12,5,1,12,0.00
2013-2-8,33,29,18,31,26,15,95,86,63,30.31,29.41,9,1,14,0.00
2013-2-9,24,19,14,21,15,8,94,86,77,30.01,29.36,14,4,19,0.00
2013-2-10,47,21,6,24,12,1,88,70,30,30.22,30.01,5,0,11,0.16
2013-2-11,43,32,14,42,29,9,100,92,79,30.18,29.43,6,0,8,0.81
2013-2-12,49,38,30,40,31,25,97,77,51,29.71,29.44,9,1,16,0.24
2013-2-13,49,34,22,31,26,19,92,75,46,29.70,29.51,5,0,7,0.05
2013-2-14,53,36,29,30,26,22,92,67,33,29.83,29.54,5,1,10,0.01
2013-2-15,55,38,26,37,31,21,94,77,50,29.83,29.73,8,1,11,0.00
2013-2-16,38,34,31,34,29,22,92,83,67,29.78,29.53,6,1,9,0.03
2013-2-17,31,22,18,23,14,4,96,72,50,29.53,29.22,12,4,26,0.00
2013-2-18,39,23,14,10,5,2,60,46,26,29.98,29.51,12,2,17,0.04
2013-2-19,47,35,21,41,26,5,94,68,47,29.99,29.41,7,1,10,0.47
2013-2-20,40,32,26,39,22,13,94,68,47,29.61,29.35,11,2,13,0.00
2013-2-21,40,28,24,19,16,13,71,59,39,30.01,29.61,12,3,16,0.00
2013-2-22,43,32,23,27,22,16,82,70,51,30.21,30.01,6,1,10,0.00
2013-2-23,39,34,29,32,29,23,92,82,72,30.16,29.74,3,0,5,0.09
2013-2-24,37,34,31,36,33,30,95,95,92,29.74,29.51,7,1,9,0.56
2013-2-25,42,35,30,37,31,29,100,87,70,30.07,29.72,4,0,6,0.23
2013-2-26,45,35,26,37,30,24,94,81,61,30.17,29.98,4,0,8,0.00
2013-2-27,41,39,37,40,38,32,96,94,85,29.98,29.39,8,2,14,1.17
2013-2-28,46,38,34,43,36,31,97,92,81,29.48,29.35,1,0,4,0.00